TimeCEST,TemperatureF,Dew PointF,Humidity,Sea Level PressureIn,VisibilityMPH,Wind Direction,Wind SpeedMPH,Gust SpeedMPH,PrecipitationIn,Events,Conditions,WindDirDegrees,DateUTC
12:25 AM,59.0,57.2,94,29.83,6.2,South,11.5,-,N/A,,Overcast,180,2013-10-25 22:25:00
12:55 AM,59.0,57.2,94,29.83,6.2,South,10.4,-,N/A,,Overcast,190,2013-10-25 22:55:00
1:25 AM,59.0,57.2,94,29.83,6.2,South,11.5,-,N/A,,Overcast,190,2013-10-25 23:25:00
1:55 AM,59.0,57.2,94,29.83,6.2,SSW,9.2,-,N/A,,Overcast,200,2013-10-25 23:55:00
2:25 AM,59.0,59.0,100,29.83,6.2,South,8.1,-,N/A,,Overcast,190,2013-10-26 00:25:00
2:55 AM,59.0,59.0,100,29.83,5.6,South,8.1,-,N/A,,Overcast,190,2013-10-26 00:55:00
3:25 AM,59.0,59.0,100,29.83,5.6,South,9.2,-,N/A,,Overcast,190,2013-10-26 01:25:00
3:55 AM,59.0,59.0,100,29.83,6.2,South,9.2,-,N/A,,Overcast,190,2013-10-26 01:55:00
4:25 AM,59.0,59.0,100,29.80,5.6,South,9.2,-,N/A,,Overcast,190,2013-10-26 02:25:00
4:55 AM,59.0,57.2,94,29.80,6.2,South,8.1,-,N/A,,Overcast,190,2013-10-26 02:55:00
5:25 AM,59.0,59.0,100,29.80,5.6,South,8.1,-,N/A,,Overcast,190,2013-10-26 03:25:00
5:55 AM,59.0,59.0,100,29.80,5.6,South,10.4,-,N/A,,Overcast,190,2013-10-26 03:55:00
6:25 AM,59.0,59.0,100,29.80,5.6,South,11.5,-,N/A,,Overcast,190,2013-10-26 04:25:00
6:55 AM,59.0,59.0,100,29.80,6.2,SSW,13.8,-,N/A,,Mostly Cloudy,200,2013-10-26 04:55:00
7:25 AM,59.0,59.0,100,29.80,6.2,SSW,16.1,-,N/A,,Overcast,200,2013-10-26 05:25:00
7:55 AM,60.8,59.0,94,29.80,6.2,SSW,15.0,-,N/A,,Mostly Cloudy,200,2013-10-26 05:55:00
8:25 AM,60.8,59.0,94,29.80,6.2,SSW,12.7,-,N/A,,Overcast,210,2013-10-26 06:25:00
8:55 AM,59.0,59.0,100,29.80,6.2,SSW,12.7,-,N/A,,Overcast,200,2013-10-26 06:55:00
9:25 AM,59.0,59.0,100,29.83,6.2,SSW,15.0,-,N/A,,Overcast,200,2013-10-26 07:25:00
9:55 AM,60.8,59.0,94,29.83,6.2,SSW,13.8,-,N/A,,Mostly Cloudy,210,2013-10-26 07:55:00
10:25 AM,60.8,59.0,94,29.83,6.2,SSW,15.0,-,N/A,,Overcast,200,2013-10-26 08:25:00
10:55 AM,60.8,59.0,94,29.83,6.2,SSW,13.8,-,N/A,,Overcast,210,2013-10-26 08:55:00
11:25 AM,62.6,59.0,88,29.83,6.2,SSW,16.1,-,N/A,,Mostly Cloudy,200,2013-10-26 09:25:00
11:55 AM,62.6,59.0,88,29.83,6.2,SSW,17.3,-,N/A,,Mostly Cloudy,210,2013-10-26 09:55:00
12:25 PM,62.6,57.2,82,29.83,6.2,SSW,17.3,-,N/A,,Mostly Cloudy,210,2013-10-26 10:25:00
12:55 PM,62.6,57.2,82,29.83,6.2,SSW,16.1,-,N/A,,Mostly Cloudy,210,2013-10-26 10:55:00
1:25 PM,62.6,57.2,82,29.80,6.2,SSW,15.0,-,N/A,,Mostly Cloudy,210,2013-10-26 11:25:00
1:55 PM,66.2,57.2,73,29.80,6.2,SSW,16.1,-,N/A,,Scattered Clouds,210,2013-10-26 11:55:00
2:25 PM,64.4,55.4,73,29.80,6.2,SSW,15.0,-,N/A,,Overcast,210,2013-10-26 12:25:00
2:55 PM,64.4,55.4,73,29.80,6.2,SSW,12.7,-,N/A,,Overcast,210,2013-10-26 12:55:00
3:25 PM,64.4,55.4,73,29.77,6.2,SSW,11.5,-,N/A,,Overcast,210,2013-10-26 13:25:00
3:55 PM,66.2,53.6,64,29.77,6.2,SW,13.8,-,N/A,,Overcast,220,2013-10-26 13:55:00
4:25 PM,68.0,55.4,64,29.77,6.2,SSW,15.0,-,N/A,,Partly Cloudy,210,2013-10-26 14:25:00
4:55 PM,66.2,53.6,64,29.77,6.2,SSW,16.1,-,N/A,,Scattered Clouds,200,2013-10-26 14:55:00
5:25 PM,66.2,55.4,68,29.77,6.2,SSW,12.7,-,N/A,,Unknown,210,2013-10-26 15:25:00
5:55 PM,64.4,55.4,73,29.77,6.2,SSW,11.5,-,N/A,,Partly Cloudy,200,2013-10-26 15:55:00
6:25 PM,62.6,53.6,72,29.77,6.2,SSW,11.5,-,N/A,,Unknown,210,2013-10-26 16:25:00
6:55 PM,60.8,53.6,77,29.77,6.2,SSW,8.1,-,N/A,,Unknown,210,2013-10-26 16:55:00
7:25 PM,60.8,53.6,77,29.77,6.2,SSW,5.8,-,N/A,,Scattered Clouds,210,2013-10-26 17:25:00
7:55 PM,60.8,55.4,82,29.77,6.2,SSW,5.8,-,N/A,,Mostly Cloudy,200,2013-10-26 17:55:00
8:25 PM,60.8,55.4,82,29.77,6.2,SSW,8.1,-,N/A,,Partly Cloudy,200,2013-10-26 18:25:00
8:55 PM,60.8,55.4,82,29.77,6.2,SSW,8.1,-,N/A,,Scattered Clouds,210,2013-10-26 18:55:00
9:25 PM,60.8,55.4,82,29.77,6.2,South,6.9,-,N/A,,Mostly Cloudy,190,2013-10-26 19:25:00
9:55 PM,59.0,55.4,88,29.74,6.2,South,9.2,-,N/A,,Unknown,180,2013-10-26 19:55:00
10:25 PM,59.0,57.2,94,29.74,6.2,South,10.4,-,N/A,,Partly Cloudy,190,2013-10-26 20:25:00
10:55 PM,59.0,57.2,94,29.74,6.2,South,11.5,-,N/A,,Unknown,190,2013-10-26 20:55:00
11:25 PM,59.0,57.2,94,29.74,6.2,South,10.4,-,N/A,,Unknown,190,2013-10-26 21:25:00
11:55 PM,59.0,57.2,94,29.74,6.2,South,11.5,-,N/A,,Partly Cloudy,190,2013-10-26 21:55:00